GW3840 Weather Reports


time (UTC)temp
F
wind
direction
speed
knots
gust
knots
rain 1hr
in
rain 24hr
in
rain mn
in
humidity
%
barometer
mb
20260509193630 54 322 5.2 8.7 0.00 0.09 0.09 45 1013.6
20260509193126 54 342 6.1 9.6 0.00 0.09 0.09 45 1013.5
20260509192623 53 23 4.3 13.9 0.00 0.09 0.09 51 1013.3
20260509192118 53 320 7.0 12.2 0.00 0.09 0.09 47 1013.3
20260509191612 53 339 5.2 12.2 0.00 0.09 0.09 46 1013.2
20260509191108 52 0 7.8 11.3 0.00 0.09 0.09 47 1013.4
20260509190605 53 3 3.5 13.0 0.00 0.09 0.09 46 1013.3
20260509185600 53 329 9.6 14.8 0.00 0.09 0.09 46 1013.3
20260509185056 53 303 3.5 9.6 0.00 0.09 0.09 47 1013.4
20260509184555 52 359 4.3 9.6 0.00 0.09 0.09 49 1013.2
20260509184051 52 283 5.2 7.8 0.00 0.09 0.09 49 1013.2
20260509183546 52 320 3.5 5.2 0.00 0.09 0.09 49 1013.4
20260509183042 51 320 4.3 7.0 0.00 0.09 0.09 50 1013.2
20260509182539 52 338 3.5 12.2 0.00 0.09 0.09 51 1013.3
20260509182036 51 320 6.1 8.7 0.00 0.09 0.09 49 1013.1
20260509181534 52 17 3.5 8.7 0.00 0.09 0.09 49 1013.2
20260509181031 52 22 5.2 8.7 0.00 0.09 0.09 50 1012.9
20260509180527 51 299 7.0 12.2 0.00 0.09 0.09 50 1013.1
20260509180025 51 242 4.3 7.8 0.00 0.09 0.09 54 1013.0
20260509175520 51 324 4.3 6.1 0.00 0.09 0.09 50 1013.0
20260509175017 51 223 4.3 8.7 0.00 0.09 0.09 52 1013.2
20260509174514 51 343 7.8 12.2 0.00 0.09 0.09 52 1013.0
20260509174009 51 265 3.5 13.0 0.00 0.09 0.09 53 1012.9
20260509173503 50 37 9.6 12.2 0.00 0.09 0.09 51 1012.9
20260509173000 50 353 5.2 7.0 0.00 0.09 0.09 54 1012.8
20260509172457 51 308 3.5 7.0 0.00 0.09 0.09 56 1012.8
20260509171952 50 245 2.6 3.5 0.00 0.09 0.09 53 1012.8
20260509171449 51 19 5.2 13.0 0.00 0.09 0.09 50 1012.9
20260509170945 50 286 5.2 6.1 0.00 0.09 0.09 55 1012.7
20260509170441 50 358 4.3 7.0 0.00 0.09 0.09 52 1012.7
20260509165936 50 326 3.5 3.5 0.00 0.09 0.09 55 1012.7
20260509165431 50 318 5.2 6.1 0.00 0.09 0.09 52 1012.5
20260509164926 49 28 6.1 12.2 0.00 0.09 0.09 53 1012.5
20260509164423 50 54 5.2 7.8 0.00 0.09 0.09 52 1012.4
20260509163919 49 351 6.1 11.3 0.00 0.09 0.09 54 1012.1
20260509163416 49 356 7.0 12.2 0.00 0.09 0.09 52 1012.2
20260509162915 50 298 6.1 9.6 0.00 0.09 0.09 54 1012.0
20260509162414 50 343 3.5 7.8 0.00 0.09 0.09 56 1012.0
20260509161910 49 10 4.3 6.1 0.00 0.09 0.09 52 1012.1
20260509161406 49 326 3.5 7.8 0.00 0.09 0.09 53 1011.9
20260509160902 49 342 3.5 13.9 0.00 0.09 0.09 52 1012.0
20260509160357 48 307 7.0 9.6 0.00 0.09 0.09 53 1012.1
20260509155853 49 268 5.2 8.7 0.00 0.09 0.09 55 1012.0
20260509155350 49 9 4.3 8.7 0.00 0.09 0.09 55 1011.7
20260509154846 49 6 7.0 8.7 0.00 0.09 0.09 55 1011.6
20260509154343 49 64 4.3 11.3 0.00 0.09 0.09 54 1011.6
20260509153839 49 1 4.3 8.7 0.00 0.09 0.09 57 1011.6
20260509153337 49 53 4.3 7.0 0.00 0.09 0.09 56 1011.5
20260509152833 48 34 3.5 9.6 0.00 0.09 0.09 57 1011.4
20260509152329 48 331 5.2 11.3 0.00 0.09 0.09 55 1011.4
20260509151827 48 303 7.8 11.3 0.00 0.09 0.09 56 1011.3
20260509151323 49 344 7.8 8.7 0.00 0.09 0.09 55 1011.3
20260509150822 48 346 2.6 12.2 0.00 0.09 0.09 57 1011.0
20260509150319 48 287 3.5 7.0 0.00 0.09 0.09 59 1011.1
20260509145816 49 319 4.3 9.6 0.00 0.09 0.09 59 1010.8
20260509145316 48 39 4.3 12.2 0.00 0.09 0.09 60 1011.1
20260509144812 48 122 6.1 8.7 0.00 0.09 0.09 59 1011.0
20260509144309 48 19 9.6 13.0 0.00 0.09 0.09 57 1010.9
20260509143806 48 344 7.8 13.9 0.00 0.09 0.09 58 1010.7
20260509143258 48 295 6.1 8.7 0.00 0.09 0.09 59 1010.7
20260509142753 48 10 3.5 8.7 0.00 0.09 0.09 62 1010.7
20260509142250 48 316 5.2 9.6 0.00 0.09 0.09 61 1010.6
20260509141745 48 323 5.2 12.2 0.00 0.09 0.09 60 1010.5
20260509141243 47 46 3.5 8.7 0.00 0.09 0.09 64 1010.7
20260509140739 47 3 5.2 9.6 0.00 0.09 0.09 62 1010.5
20260509140237 47 18 5.2 8.7 0.00 0.09 0.09 64 1010.3
20260509135734 47 36 4.3 11.3 0.00 0.09 0.09 64 1010.3
20260509135232 47 315 3.5 11.3 0.00 0.09 0.09 64 1010.4
20260509134729 47 338 6.1 7.8 0.00 0.09 0.09 65 1010.1
20260509134226 47 3 0.9 7.8 0.00 0.09 0.09 69 1010.1
20260509133723 47 35 3.5 7.0 0.00 0.09 0.09 70 1010.0
20260509133220 46 16 5.2 7.8 0.00 0.09 0.09 69 1010.0
20260509132719 46 357 5.2 8.7 0.00 0.09 0.09 72 1009.9
20260509132217 46 346 4.3 7.0 0.00 0.09 0.09 74 1009.9
20260509131713 46 29 7.0 9.6 0.00 0.09 0.09 75 1009.6
20260509131210 46 352 3.5 11.3 0.00 0.09 0.09 77 1009.5
20260509130705 46 50 4.3 9.6 0.00 0.09 0.09 79 1009.6
20260509130202 46 17 4.3 7.8 0.00 0.09 0.09 80 1009.6
20260509125658 45 42 5.2 13.0 0.00 0.09 0.09 80 1009.3
20260509125155 45 353 4.3 6.1 0.00 0.09 0.09 83 1009.2
20260509124652 45 317 3.5 7.0 0.00 0.09 0.09 83 1009.0
20260509124148 45 347 2.6 7.0 0.00 0.09 0.09 84 1009.0
20260509123647 45 347 3.5 6.1 0.00 0.09 0.09 85 1008.9
20260509123143 45 352 4.3 7.0 0.00 0.09 0.09 86 1009.0
20260509122639 45 109 1.7 3.5 0.00 0.09 0.09 86 1008.8
20260509122136 45 309 3.5 8.7 0.00 0.09 0.09 86 1008.9
20260509121632 44 336 3.5 5.2 0.00 0.09 0.09 88 1008.6
20260509121131 44 239 3.5 7.8 0.00 0.09 0.09 90 1008.4
20260509120628 44 321 3.5 6.1 0.00 0.09 0.09 92 1008.5
20260509120126 44 302 2.6 6.1 0.00 0.09 0.09 93 1008.5
20260509115623 44 294 3.5 5.2 0.00 0.09 0.09 94 1008.3
20260509115121 43 8 5.2 6.1 0.00 0.09 0.09 95 1008.1
20260509114619 43 24 2.6 2.6 0.00 0.09 0.09 96 1008.1
20260509114118 0 0.0 0.0 0.00 0.00 0.00 1008.0
20260509113615 0 0.0 0.0 0.00 0.00 0.00 1008.1
20260509113113 0 0.0 0.0 0.00 0.00 0.00 1007.8
20260509112609 0 0.0 0.0 0.00 0.00 0.00 1007.7
20260509112106 0 0.0 0.0 0.00 0.00 0.00 1007.6
20260509111603 0 0.0 0.0 0.00 0.00 0.00 1007.6
20260509111100 0 0.0 0.0 0.00 0.00 0.00 1007.4
20260509110557 44 339 3.5 5.2 0.00 0.09 0.09 98 1007.2
20260509110054 44 339 3.5 5.2 0.00 0.09 0.09 98 1007.1
20260509105552 44 339 3.5 5.2 0.00 0.09 0.09 98 1007.0
20260509105050 44 339 3.5 5.2 0.00 0.09 0.09 98 1007.0
20260509104546 44 339 3.5 5.2 0.00 0.09 0.09 98 1007.0
20260509104043 44 339 3.5 5.2 0.00 0.09 0.09 98 1006.8
20260509103541 44 339 3.5 5.2 0.00 0.09 0.09 98 1006.8
20260509103039 44 339 3.5 5.2 0.00 0.09 0.09 98 1006.7
20260509102536 44 339 3.5 5.2 0.00 0.09 0.09 98 1006.7
20260509102033 44 339 3.5 5.2 0.00 0.09 0.09 98 1006.7
20260509101529 44 339 3.5 5.2 0.00 0.09 0.09 98 1006.8
20260509101026 44 339 3.5 5.2 0.00 0.09 0.09 98 1006.4
20260509100523 44 344 2.6 3.5 0.00 0.09 0.09 98 1006.4
20260509100021 45 354 4.3 5.2 0.00 0.09 0.09 96 1006.7
20260509095517 45 354 4.3 5.2 0.00 0.09 0.09 96 1006.5
20260509095015 45 354 4.3 5.2 0.00 0.09 0.09 96 1006.3
20260509094511 45 354 4.3 5.2 0.00 0.09 0.09 96 1006.3
20260509094008 45 354 4.3 5.2 0.00 0.09 0.09 96 1006.0
20260509093506 45 354 4.3 5.2 0.00 0.09 0.09 96 1006.0
20260509093004 46 351 6.1 8.7 0.00 0.09 0.09 96 1005.9
20260509092501 46 38 5.2 7.0 0.00 0.09 0.09 97 1006.0
20260509092000 46 337 5.2 7.0 0.00 0.09 0.09 97 1005.7
20260509091456 46 334 3.5 7.0 0.00 0.09 0.09 98 1005.9
20260509090953 47 351 2.6 3.5 0.00 0.09 0.09 99 1005.6
20260509090451 47 271 1.7 6.1 0.00 0.09 0.09 99 1005.4
20260509085948 47 304 1.7 2.6 0.00 0.09 0.09 99 1005.3
20260509085445 47 280 2.6 3.5 0.00 0.09 0.09 99 1005.2
20260509084941 47 267 3.5 3.5 0.00 0.09 0.09 99 1005.0
20260509084438 47 264 1.7 1.7 0.00 0.09 0.09 99 1004.7
20260509083936 47 261 1.7 1.7 0.00 0.09 0.09 99 1004.9
20260509083433 47 261 1.7 1.7 0.00 0.09 0.09 99 1004.9
20260509082929 47 261 1.7 1.7 0.00 0.09 0.09 99 1004.9
20260509082427 47 259 1.7 1.7 0.00 0.09 0.09 99 1004.6
20260509081923 47 265 0.9 0.9 0.00 0.09 0.09 99 1004.6
20260509081421 47 247 0.0 0.9 0.00 0.09 0.09 99 1004.5
20260509080918 47 247 0.0 0.9 0.00 0.09 0.09 99 1004.4
20260509080416 47 257 0.0 0.9 0.00 0.09 0.09 99 1004.6
20260509075914 47 273 0.9 0.9 0.00 0.09 0.09 99 1004.4
20260509075411 47 268 0.0 0.9 0.00 0.09 0.09 99 1004.3
20260509074908 47 254 0.0 0.0 0.00 0.09 0.09 99 1004.3
20260509074406 47 221 0.0 0.0 0.00 0.09 0.09 99 1004.3
20260509073902 47 249 0.0 0.0 0.00 0.09 0.09 99 1004.2
20260509073358 47 249 0.0 0.9 0.00 0.09 0.09 99 1004.4
20260509072855 47 191 0.0 0.9 0.00 0.09 0.09 99 1004.5
20260509072351 47 169 0.0 0.9 0.00 0.09 0.09 99 1004.7
20260509071848 47 322 0.9 0.9 0.07 0.09 0.09 99 1005.1
20260509071345 47 131 0.9 0.9 0.38 0.09 0.09 98 1004.4
20260509070843 47 251 0.9 0.9 0.31 0.08 0.08 98 1004.5
20260509070339 48 25 3.5 5.2 0.00 0.03 0.03 96 1005.3
20260509065835 48 25 3.5 5.2 0.00 0.03 0.03 96 1005.3
20260509065332 48 25 3.5 5.2 0.00 0.03 0.03 96 1005.1
20260509064827 48 25 3.5 5.2 0.05 0.03 0.03 96 1005.3
20260509064325 48 25 3.5 5.2 0.05 0.03 0.03 96 1005.4
20260509063823 48 30 3.5 3.5 0.07 0.02 0.02 96 1005.7
20260509063319 48 31 4.3 7.0 0.12 0.02 0.02 95 1005.6
20260509062816 48 29 7.8 9.6 0.05 0.01 0.01 94 1005.5
20260509062313 50 4 3.5 5.2 0.00 0.00 0.00 88 1005.5
20260509061810 50 4 3.5 5.2 0.00 0.00 0.00 88 1005.4
20260509061309 50 4 3.5 5.2 0.00 0.00 0.00 88 1005.4
20260509060805 50 4 3.5 5.2 0.00 0.00 0.00 88 1005.4
20260509060301 50 4 3.5 5.2 0.00 0.00 0.00 88 1005.6
20260509055756 50 257 2.6 6.1 0.00 0.00 0.00 87 1005.7
20260509055252 51 43 7.0 8.7 0.00 0.00 0.00 85 1005.7
20260509054744 54 346 9.6 12.2 0.00 0.00 0.00 73 1005.6
20260509054241 54 346 9.6 12.2 0.00 0.00 0.00 73 1005.8
20260509053740 55 348 5.2 11.3 0.00 0.00 0.00 66 1005.5
20260509053236 55 289 6.1 7.8 0.00 0.00 0.00 65 1005.7
20260509052734 55 320 8.7 9.6 0.00 0.00 0.00 64 1005.7
20260509052231 56 322 4.3 9.6 0.00 0.00 0.00 62 1005.7
20260509051729 56 235 7.8 9.6 0.00 0.00 0.00 59 1005.4
20260509051227 56 322 12.2 15.6 0.00 0.00 0.00 58 1005.5
20260509050723 56 315 7.0 11.3 0.00 0.00 0.00 55 1005.4
20260509050219 57 10 9.6 13.9 0.00 0.00 0.00 53 1005.4
20260509045717 55 278 3.5 6.1 0.00 0.00 0.00 51 1005.2
20260509045214 55 275 5.2 7.0 0.00 0.00 0.00 50 1005.1
20260509044711 54 261 1.7 3.5 0.00 0.00 0.00 54 1005.0
20260509044209 54 260 3.5 3.5 0.00 0.00 0.00 53 1004.9
20260509043705 51 249 0.9 2.6 0.00 0.00 0.00 63 1004.4
20260509043201 51 235 0.0 0.0 0.00 0.00 0.00 66 1004.2
20260509042657 50 255 0.0 0.9 0.00 0.00 0.00 70 1003.9
20260509042153 51 207 0.0 0.9 0.00 0.00 0.00 73 1004.3
20260509041650 50 218 0.0 0.0 0.00 0.00 0.00 73 1004.2
20260509041148 50 219 0.0 0.0 0.00 0.00 0.00 74 1004.0
20260509040646 49 205 0.0 0.0 0.00 0.00 0.00 74 1003.9
20260509040142 50 215 0.0 0.0 0.00 0.00 0.00 72 1003.8
20260509035639 50 217 0.0 0.9 0.00 0.00 0.00 71 1003.8
20260509035136 50 215 0.0 0.9 0.00 0.00 0.00 71 1003.8
20260509034634 50 221 0.9 1.7 0.00 0.00 0.00 71 1004.1
20260509034131 49 214 0.0 0.9 0.00 0.00 0.00 65 1004.0
20260509033628 48 220 0.9 0.9 0.00 0.00 0.00 62 1004.1
20260509033125 48 210 0.9 0.9 0.00 0.00 0.00 66 1003.9
20260509032622 48 163 0.0 0.0 0.00 0.00 0.00 64 1004.1
20260509032119 48 178 0.0 0.0 0.00 0.00 0.00 70 1004.3
20260509031617 49 207 0.0 0.0 0.00 0.00 0.00 70 1004.6
20260509031114 48 221 0.0 0.9 0.00 0.00 0.00 69 1004.6
20260509030612 48 200 0.0 0.0 0.00 0.00 0.00 72 1004.6
20260509030109 49 201 0.0 0.0 0.00 0.00 0.00 68 1004.7
20260509025604 50 217 0.0 0.9 0.00 0.00 0.00 61 1004.7
20260509025100 49 223 0.0 0.9 0.00 0.00 0.00 63 1004.6
20260509024556 49 204 0.0 0.0 0.00 0.00 0.00 70 1004.7
20260509024052 49 210 0.0 0.0 0.00 0.00 0.00 68 1004.9
20260509023550 49 214 0.0 0.0 0.00 0.00 0.00 61 1004.7
20260509023047 49 188 0.0 0.0 0.00 0.00 0.00 55 1004.9
20260509022543 49 188 0.0 0.0 0.00 0.00 0.00 55 1004.7
20260509022041 50 188 0.0 0.0 0.00 0.00 0.00 52 1004.7
20260509021538 50 188 0.0 0.0 0.00 0.00 0.00 51 1004.5
20260509021035 50 188 0.0 0.0 0.00 0.00 0.00 51 1004.7
20260509020533 51 188 0.0 0.0 0.00 0.00 0.00 50 1004.4
20260509020030 52 187 0.0 0.0 0.00 0.00 0.00 49 1004.6
20260509015529 52 186 0.0 0.0 0.00 0.00 0.00 47 1004.5
20260509015026 53 198 0.0 0.0 0.00 0.00 0.00 47 1004.6
20260509014522 54 184 0.0 0.0 0.00 0.00 0.00 46 1004.6
20260509014019 55 184 0.0 0.0 0.00 0.00 0.00 45 1004.7
20260509013516 55 199 0.0 0.0 0.00 0.00 0.00 43 1004.5
20260509013011 57 210 0.0 0.0 0.00 0.00 0.00 42 1004.7
20260509012508 58 213 0.0 0.0 0.00 0.00 0.00 40 1004.9
20260509012005 59 275 0.0 0.9 0.00 0.00 0.00 37 1004.9
20260509011503 59 20 2.6 2.6 0.00 0.00 0.00 36 1004.9
20260509011000 59 289 0.9 1.7 0.00 0.00 0.00 38 1004.9
20260509010458 59 14 1.7 1.7 0.00 0.00 0.00 38 1004.9
20260509005954 60 19 0.9 2.6 0.00 0.00 0.00 39 1004.9
20260509005452 61 335 0.9 1.7 0.00 0.00 0.00 36 1005.0
20260509004946 61 348 3.5 3.5 0.00 0.00 0.00 36 1005.0
20260509004443 62 10 2.6 3.5 0.00 0.00 0.00 37 1005.0
20260509003941 62 328 2.6 2.6 0.00 0.00 0.00 36 1005.2
20260509003439 62 348 4.3 5.2 0.00 0.00 0.00 34 1005.0
20260509002935 62 36 2.6 5.2 0.00 0.00 0.00 35 1004.9
20260509002433 62 46 4.3 7.8 0.00 0.00 0.00 34 1005.0
20260509001930 62 340 4.3 7.8 0.00 0.00 0.00 34 1005.0
20260509001427 63 358 5.2 9.6 0.00 0.00 0.00 34 1005.1
20260509000923 63 266 2.6 11.3 0.00 0.00 0.00 35 1005.0
20260509000421 63 314 3.5 8.7 0.00 0.00 0.00 35 1005.0
20260508235916 63 311 7.0 13.9 0.00 0.00 0.00 33 1005.0
20260508235414 64 344 7.8 9.6 0.00 0.00 0.00 33 1005.0
20260508234906 64 34 3.5 7.8 0.00 0.00 0.00 34 1005.0
20260508234402 64 331 6.1 9.6 0.00 0.00 0.00 33 1004.9
20260508233900 64 6 8.7 13.9 0.00 0.00 0.00 33 1004.7
20260508233400 64 283 7.8 15.6 0.00 0.00 0.00 32 1004.9
20260508232856 64 255 5.2 7.8 0.00 0.00 0.00 33 1004.7
20260508232352 64 58 5.2 12.2 0.00 0.00 0.00 33 1004.6
20260508231851 64 280 10.4 20.0 0.00 0.00 0.00 33 1004.6
20260508231347 65 303 6.1 14.8 0.00 0.00 0.00 32 1004.6
20260508230844 65 260 4.3 7.0 0.00 0.00 0.00 33 1005.1
20260508230340 65 297 9.6 11.3 0.00 0.00 0.00 31 1004.9
20260508225838 65 312 7.8 12.2 0.00 0.00 0.00 32 1005.0
20260508225334 65 327 3.5 13.9 0.00 0.00 0.00 34 1004.6
20260508224833 65 280 9.6 11.3 0.00 0.00 0.00 31 1005.0
20260508224330 66 280 6.1 9.6 0.00 0.00 0.00 32 1004.6
20260508223827 66 319 4.3 14.8 0.00 0.00 0.00 31 1004.6
20260508223324 66 294 12.2 15.6 0.00 0.00 0.00 30 1004.4
20260508222822 66 338 5.2 9.6 0.00 0.00 0.00 31 1004.3
20260508222319 67 278 9.6 13.0 0.00 0.00 0.00 31 1004.2
20260508221815 66 325 7.8 12.2 0.00 0.00 0.00 32 1004.2
20260508221311 67 313 5.2 8.7 0.00 0.00 0.00 32 1004.3
20260508220807 67 316 5.2 13.0 0.00 0.00 0.00 31 1004.2
20260508220304 67 308 11.3 13.9 0.00 0.00 0.00 31 1004.3
20260508215801 67 274 9.6 13.0 0.00 0.00 0.00 31 1004.4
20260508215257 67 275 14.8 16.5 0.00 0.00 0.00 30 1004.1
20260508214754 67 301 15.6 21.7 0.00 0.00 0.00 30 1004.1
20260508214251 68 358 7.8 13.0 0.00 0.00 0.00 30 1004.1
20260508213748 68 334 8.7 18.2 0.00 0.00 0.00 28 1004.3
20260508213245 68 288 11.3 18.2 0.00 0.00 0.00 27 1004.2
20260508212741 68 287 7.8 9.6 0.00 0.00 0.00 29 1004.1
20260508212237 68 354 3.5 7.0 0.00 0.00 0.00 28 1004.0
20260508211733 69 358 7.8 9.6 0.00 0.00 0.00 28 1004.0
20260508211229 68 281 7.8 8.7 0.00 0.00 0.00 27 1004.0
20260508210727 67 301 1.7 9.6 0.00 0.00 0.00 30 1004.2
20260508210224 66 266 7.0 13.9 0.00 0.00 0.00 27 1004.1
20260508205720 67 296 9.6 15.6 0.00 0.00 0.00 26 1004.0
20260508205217 68 346 6.1 13.9 0.00 0.00 0.00 27 1004.2
20260508204713 68 262 11.3 13.9 0.00 0.00 0.00 25 1004.1
20260508204209 68 290 5.2 7.8 0.00 0.00 0.00 29 1004.2
20260508203705 67 339 6.1 11.3 0.00 0.00 0.00 28 1004.3
20260508203202 68 287 7.8 14.8 0.00 0.00 0.00 26 1004.4
20260508202658 68 316 7.0 13.0 0.00 0.00 0.00 27 1004.2
20260508202155 67 296 6.1 7.8 0.00 0.00 0.00 27 1004.4
20260508201652 68 296 4.3 9.6 0.00 0.00 0.00 30 1004.4
20260508201149 69 247 7.0 11.3 0.00 0.00 0.00 25 1004.2
20260508200646 69 319 10.4 13.9 0.00 0.00 0.00 25 1004.5
20260508200142 68 262 7.8 9.6 0.00 0.00 0.00 24 1004.5
20260508195639 67 238 5.2 7.0 0.00 0.00 0.00 27 1004.6
20260508195135 67 324 8.7 12.2 0.00 0.00 0.00 26 1004.6
20260508194632 67 256 6.1 9.6 0.00 0.00 0.00 25 1004.5
20260508194129 68 222 2.6 6.1 0.00 0.00 0.00 27 1004.6